ARIANE 44LP DEB, 19219

Orbit data source: Space-Track

ARIANE 44LP DEB, 19219 is space debris in HEO originally from a launch on Wed, 15 Jun 1988 UTC launched from the French Guiana (FRGUI). Debris objects in space refer to the collection of defunct objects orbiting the Earth. Examples of debris include non-operational satellites, rocket bodies, and fragments generated from explosions, collisions, or faulty payload assembly.

Loading next visibility...
Identifier
19219, 1988-051E
Orbit
HEO
Country
Flag of FRFR
Related business
Manufacturer
BAe
Mission
Spacecraft
Bus & Motor
SPELDA, Unknown motor
Mass
200 kg wet, 200 kg dry
Launch date (UTC)
1988-06-15 (37 years ago)
Launch vehicle
Unknown
Launch site
French Guiana (FRGUI)
Object type
Payload
Rocket body
Debris
Shape & HBR
Cyl + Trunc Cone, 2.0 m
Radar Cross Section
11.938 m², Large (>1 m²)

Expand to show TLE details & history
Last TLE update: 1 day ago

TLE from 1 day ago
0 ARIANE 44LP DEB
1 19219U 88051E   25245.14467157  .00003573  00000-0  12324-2 0  9999
2 19219  10.2067 321.1099 6769087  23.2198 356.6038  2.93507548348923
Epoch: 2025-09-02T03:28Z
TLE epoch observation values (Epoch: 2025-09-02T03:28:19.623Z)
Latitude
-0.00088°
Longitude
-72.5186°
Altitude
488.109 km
Speed
9.836 km/s
True Right ascension
21h 24m 24s
True Declination
0° 00' 03"
Sunlit
Object was in full shadow at epoch
Visualization orbit readout
Latitude
Unknown
Longitude
Unknown
Altitude
Unknown
Speed
Unknown
Apparent Right ascension
Unknown
Apparent Declination
Unknown
Sunlit
N/A
Visualization observer readout
Local Sidereal Time
22:57:04
Azimuth
Unknown
Elevation
Unknown
Doppler factor
Unknown
Orbital elements
Apogee altitude
28,184.456 km
Perigee altitude
281.065 km
Semi-major axis
20,610.897 km
Eccentricity
0.67691
Inclination
10.2067°
RAAN
321.1099°
Arg. of periapsis
23.2198°
True anomaly
336.59012°
Mean anomaly
356.6038°
Eccentric anomaly
349.60761°
Mean motion
0.7335 °/min
Orbital period
490.8 mins
BSTAR
0.0012324
Loading maneuver chart data...
Computing Atmospheric mass density...
Loading historical data...
Loading historical data...
Loading historical data...
Loading historical data...
Loading historical data...
Loading historical data...
Loading historical data...

Documentation

Showing up to 5 results
|